Wetterdaten: Donnerstag, 27.12.2007
Datum Zeit Temp. A. Feuchte A. Luftdruck Regen Wind Richtung Richtung Sonnenschein UV Solar Windben
27.12.2007 00:00 3,0 C 91 % 1031,1 hPa 0,0 mm 1,6 km/h (1 Bft) S-SW 202 0 min 0 UV-I 0 W/m 6,4 km/h (2 Bft)
27.12.2007 00:10 3,0 C 91 % 1031,1 hPa 0,0 mm 1,6 km/h (1 Bft) S 180 0 min 0 UV-I 0 W/m 6,4 km/h (2 Bft)
27.12.2007 00:20 2,9 C 91 % 1031,2 hPa 0,0 mm 1,6 km/h (1 Bft) S 180 0 min 0 UV-I 0 W/m 4,8 km/h (1 Bft)
27.12.2007 00:30 2,9 C 91 % 1031,2 hPa 0,0 mm 0,0 km/h (0 Bft) S 180 0 min 0 UV-I 0 W/m 3,2 km/h (1 Bft)
27.12.2007 00:40 2,9 C 91 % 1031,3 hPa 0,0 mm 1,6 km/h (1 Bft) S 180 0 min 0 UV-I 0 W/m 4,8 km/h (1 Bft)
27.12.2007 00:50 2,9 C 91 % 1031,2 hPa 0,0 mm 1,6 km/h (1 Bft) S 180 0 min 0 UV-I 0 W/m 6,4 km/h (2 Bft)
27.12.2007 01:00 2,9 C 90 % 1031,3 hPa 0,0 mm 1,6 km/h (1 Bft) SW 225 0 min 0 UV-I 0 W/m 8,0 km/h (2 Bft)
27.12.2007 01:10 2,9 C 90 % 1031,3 hPa 0,0 mm 1,6 km/h (1 Bft) SW 225 0 min 0 UV-I 0 W/m 6,4 km/h (2 Bft)
27.12.2007 01:20 3,0 C 90 % 1031,3 hPa 0,0 mm 1,6 km/h (1 Bft) W-SW 247 0 min 0 UV-I 0 W/m 6,4 km/h (2 Bft)
27.12.2007 01:30 3,0 C 90 % 1031,2 hPa 0,0 mm 3,2 km/h (1 Bft) S-SW 202 0 min 0 UV-I 0 W/m 14,5 km/h (3 Bft)
27.12.2007 01:40 3,1 C 89 % 1031,2 hPa 0,0 mm 3,2 km/h (1 Bft) W-SW 247 0 min 0 UV-I 0 W/m 8,0 km/h (2 Bft)
27.12.2007 01:50 3,2 C 88 % 1031,3 hPa 0,0 mm 3,2 km/h (1 Bft) SW 225 0 min 0 UV-I 0 W/m 9,7 km/h (2 Bft)
27.12.2007 02:00 3,3 C 87 % 1031,4 hPa 0,0 mm 3,2 km/h (1 Bft) W-SW 247 0 min 0 UV-I 0 W/m 9,7 km/h (2 Bft)
27.12.2007 02:10 3,3 C 86 % 1031,4 hPa 0,0 mm 1,6 km/h (1 Bft) SW 225 0 min 0 UV-I 0 W/m 4,8 km/h (1 Bft)
27.12.2007 02:20 3,4 C 86 % 1031,4 hPa 0,0 mm 0,0 km/h (0 Bft) SW 225 0 min 0 UV-I 0 W/m 3,2 km/h (1 Bft)
27.12.2007 02:30 3,3 C 86 % 1031,4 hPa 0,0 mm 0,0 km/h (0 Bft) SW 225 0 min 0 UV-I 0 W/m 3,2 km/h (1 Bft)
27.12.2007 02:40 3,3 C 86 % 1031,4 hPa 0,0 mm 0,0 km/h (0 Bft) SW 225 0 min 0 UV-I 0 W/m 1,6 km/h (1 Bft)
27.12.2007 02:50 3,3 C 86 % 1031,4 hPa 0,0 mm 1,6 km/h (1 Bft) S-SO 157 0 min 0 UV-I 0 W/m 8,0 km/h (2 Bft)
27.12.2007 03:00 3,2 C 86 % 1031,4 hPa 0,0 mm 1,6 km/h (1 Bft) SO 135 0 min 0 UV-I 0 W/m 6,4 km/h (2 Bft)
27.12.2007 03:10 3,1 C 86 % 1031,4 hPa 0,0 mm 1,6 km/h (1 Bft) SO 135 0 min 0 UV-I 0 W/m 4,8 km/h (1 Bft)
27.12.2007 03:20 3,0 C 86 % 1031,5 hPa 0,0 mm 1,6 km/h (1 Bft) S-SO 157 0 min 0 UV-I 0 W/m 6,4 km/h (2 Bft)
27.12.2007 03:30 2,9 C 86 % 1031,4 hPa 0,0 mm 1,6 km/h (1 Bft) SO 135 0 min 0 UV-I 0 W/m 4,8 km/h (1 Bft)
27.12.2007 03:40 2,8 C 86 % 1031,4 hPa 0,0 mm 1,6 km/h (1 Bft) SO 135 0 min 0 UV-I 0 W/m 3,2 km/h (1 Bft)
27.12.2007 03:50 2,7 C 86 % 1031,4 hPa 0,0 mm 0,0 km/h (0 Bft) SO 135 0 min 0 UV-I 0 W/m 3,2 km/h (1 Bft)
27.12.2007 04:00 2,6 C 86 % 1031,3 hPa 0,0 mm 0,0 km/h (0 Bft) SO 135 0 min 0 UV-I 0 W/m 3,2 km/h (1 Bft)
27.12.2007 04:10 2,5 C 87 % 1031,3 hPa 0,0 mm 1,6 km/h (1 Bft) SO 135 0 min 0 UV-I 0 W/m 4,8 km/h (1 Bft)
27.12.2007 04:20 2,4 C 87 % 1031,4 hPa 0,0 mm 1,6 km/h (1 Bft) S-SO 157 0 min 0 UV-I 0 W/m 4,8 km/h (1 Bft)
27.12.2007 04:30 2,3 C 87 % 1031,3 hPa 0,0 mm 1,6 km/h (1 Bft) S 180 0 min 0 UV-I 0 W/m 6,4 km/h (2 Bft)
27.12.2007 04:40 2,2 C 86 % 1031,2 hPa 0,0 mm 1,6 km/h (1 Bft) SO 135 0 min 0 UV-I 0 W/m 9,7 km/h (2 Bft)
27.12.2007 04:50 2,1 C 86 % 1031,2 hPa 0,0 mm 3,2 km/h (1 Bft) S-SO 157 0 min 0 UV-I 0 W/m 11,3 km/h (2 Bft)
27.12.2007 05:00 1,9 C 86 % 1031,1 hPa 0,0 mm 3,2 km/h (1 Bft) SO 135 0 min 0 UV-I 0 W/m 9,7 km/h (2 Bft)
27.12.2007 05:10 1,8 C 87 % 1031,0 hPa 0,0 mm 1,6 km/h (1 Bft) SO 135 0 min 0 UV-I 0 W/m 4,8 km/h (1 Bft)
27.12.2007 05:20 1,8 C 86 % 1031,0 hPa 0,0 mm 1,6 km/h (1 Bft) SO 135 0 min 0 UV-I 0 W/m 6,4 km/h (2 Bft)
27.12.2007 05:30 1,7 C 87 % 1031,1 hPa 0,0 mm 0,0 km/h (0 Bft) S-SO 157 0 min 0 UV-I 0 W/m 3,2 km/h (1 Bft)
27.12.2007 05:40 1,7 C 87 % 1031,0 hPa 0,0 mm 1,6 km/h (1 Bft) SO 135 0 min 0 UV-I 0 W/m 4,8 km/h (1 Bft)
27.12.2007 05:50 1,6 C 87 % 1031,0 hPa 0,0 mm 1,6 km/h (1 Bft) S-SO 157 0 min 0 UV-I 0 W/m 6,4 km/h (2 Bft)
27.12.2007 06:00 1,6 C 87 % 1031,1 hPa 0,0 mm 1,6 km/h (1 Bft) SO 135 0 min 0 UV-I 0 W/m 6,4 km/h (2 Bft)
27.12.2007 06:10 1,5 C 87 % 1031,1 hPa 0,0 mm 0,0 km/h (0 Bft) SO 135 0 min 0 UV-I 0 W/m 3,2 km/h (1 Bft)
27.12.2007 06:20 1,4 C 87 % 1031,2 hPa 0,0 mm 1,6 km/h (1 Bft) SO 135 0 min 0 UV-I 0 W/m 6,4 km/h (2 Bft)
27.12.2007 06:30 1,4 C 88 % 1031,1 hPa 0,0 mm 1,6 km/h (1 Bft) SO 135 0 min 0 UV-I 0 W/m 6,4 km/h (2 Bft)
27.12.2007 06:40 1,4 C 88 % 1031,0 hPa 0,0 mm 1,6 km/h (1 Bft) S-SO 157 0 min 0 UV-I 0 W/m 8,0 km/h (2 Bft)
27.12.2007 06:50 1,4 C 87 % 1031,0 hPa 0,0 mm 1,6 km/h (1 Bft) S-SO 157 0 min 0 UV-I 0 W/m 6,4 km/h (2 Bft)
27.12.2007 07:00 1,3 C 87 % 1031,0 hPa 0,0 mm 3,2 km/h (1 Bft) S 180 0 min 0 UV-I 0 W/m 9,7 km/h (2 Bft)
27.12.2007 07:10 1,3 C 87 % 1031,0 hPa 0,0 mm 3,2 km/h (1 Bft) S-SO 157 0 min 0 UV-I 0 W/m 11,3 km/h (2 Bft)
27.12.2007 07:20 1,3 C 86 % 1031,1 hPa 0,0 mm 3,2 km/h (1 Bft) S-SO 157 0 min 0 UV-I 0 W/m 8,0 km/h (2 Bft)
27.12.2007 07:30 1,3 C 86 % 1031,2 hPa 0,0 mm 3,2 km/h (1 Bft) S-SO 157 0 min 0 UV-I 0 W/m 9,7 km/h (2 Bft)
27.12.2007 07:40 1,3 C 86 % 1031,2 hPa 0,0 mm 1,6 km/h (1 Bft) S-SO 157 0 min 0 UV-I 0 W/m 8,0 km/h (2 Bft)
27.12.2007 07:50 1,2 C 86 % 1031,3 hPa 0,0 mm 1,6 km/h (1 Bft) SO 135 0 min 0 UV-I 0 W/m 8,0 km/h (2 Bft)
27.12.2007 08:00 1,2 C 86 % 1031,5 hPa 0,0 mm 3,2 km/h (1 Bft) S-SO 157 0 min 0 UV-I 0 W/m 9,7 km/h (2 Bft)
27.12.2007 08:10 1,1 C 86 % 1031,6 hPa 0,0 mm 1,6 km/h (1 Bft) S-SO 157 0 min 0 UV-I 0 W/m 9,7 km/h (2 Bft)
27.12.2007 08:20 1,0 C 86 % 1031,6 hPa 0,0 mm 1,6 km/h (1 Bft) S-SO 157 0 min 0 UV-I 0 W/m 6,4 km/h (2 Bft)
27.12.2007 08:30 0,9 C 86 % 1031,6 hPa 0,0 mm 1,6 km/h (1 Bft) S-SO 157 0 min 0 UV-I 5 W/m 4,8 km/h (1 Bft)
27.12.2007 08:40 0,8 C 85 % 1031,5 hPa 0,0 mm 1,6 km/h (1 Bft) SO 135 0 min 0 UV-I 7 W/m 4,8 km/h (1 Bft)
27.12.2007 08:50 0,6 C 86 % 1031,6 hPa 0,0 mm 1,6 km/h (1 Bft) S 180 10 min 0 UV-I 14 W/m 6,4 km/h (2 Bft)
27.12.2007 09:00 0,4 C 86 % 1031,6 hPa 0,0 mm 0,0 km/h (0 Bft) SO 135 0 min 0 UV-I 19 W/m 6,4 km/h (2 Bft)
27.12.2007 09:10 0,3 C 86 % 1031,6 hPa 0,0 mm 1,6 km/h (1 Bft) SO 135 0 min 0 UV-I 25 W/m 4,8 km/h (1 Bft)
27.12.2007 09:20 0,2 C 87 % 1031,4 hPa 0,0 mm 1,6 km/h (1 Bft) SO 135 0 min 0 UV-I 30 W/m 3,2 km/h (1 Bft)
27.12.2007 09:30 0,1 C 87 % 1031,3 hPa 0,0 mm 1,6 km/h (1 Bft) SO 135 0 min 0 UV-I 39 W/m 3,2 km/h (1 Bft)
27.12.2007 09:40 0,1 C 88 % 1031,3 hPa 0,0 mm 1,6 km/h (1 Bft) SO 135 0 min 0 UV-I 56 W/m 4,8 km/h (1 Bft)
27.12.2007 09:50 0,1 C 89 % 1031,3 hPa 0,0 mm 3,2 km/h (1 Bft) O-SO 112 10 min 0 UV-I 76 W/m 8,0 km/h (2 Bft)
27.12.2007 10:00 0,2 C 89 % 1031,2 hPa 0,0 mm 4,8 km/h (1 Bft) O 90 10 min 0 UV-I 93 W/m 8,0 km/h (2 Bft)
27.12.2007 10:10 0,6 C 89 % 1031,0 hPa 0,0 mm 3,2 km/h (1 Bft) O-SO 112 10 min 0 UV-I 132 W/m 8,0 km/h (2 Bft)
27.12.2007 10:20 1,3 C 86 % 1031,0 hPa 0,0 mm 3,2 km/h (1 Bft) O-SO 112 10 min 0 UV-I 105 W/m 6,4 km/h (2 Bft)
27.12.2007 10:30 1,6 C 86 % 1030,9 hPa 0,0 mm 3,2 km/h (1 Bft) O 90 10 min 0 UV-I 107 W/m 8,0 km/h (2 Bft)
27.12.2007 10:40 1,8 C 85 % 1031,1 hPa 0,0 mm 1,6 km/h (1 Bft) O-SO 112 0 min 0 UV-I 104 W/m 6,4 km/h (2 Bft)
27.12.2007 10:50 1,9 C 84 % 1031,2 hPa 0,0 mm 3,2 km/h (1 Bft) SO 135 0 min 0 UV-I 105 W/m 8,0 km/h (2 Bft)
27.12.2007 11:00 2,2 C 83 % 1031,0 hPa 0,0 mm 3,2 km/h (1 Bft) SO 135 0 min 0 UV-I 100 W/m 9,7 km/h (2 Bft)
27.12.2007 11:10 2,4 C 83 % 1031,1 hPa 0,0 mm 1,6 km/h (1 Bft) SO 135 0 min 0 UV-I 98 W/m 6,4 km/h (2 Bft)
27.12.2007 11:20 2,5 C 83 % 1030,9 hPa 0,0 mm 1,6 km/h (1 Bft) O-SO 112 0 min 0 UV-I 97 W/m 9,7 km/h (2 Bft)
27.12.2007 11:30 2,5 C 83 % 1030,8 hPa 0,0 mm 3,2 km/h (1 Bft) O-SO 112 0 min 0 UV-I 93 W/m 6,4 km/h (2 Bft)
27.12.2007 11:40 2,6 C 83 % 1030,6 hPa 0,0 mm 1,6 km/h (1 Bft) SO 135 0 min 0 UV-I 83 W/m 6,4 km/h (2 Bft)
27.12.2007 11:50 2,6 C 83 % 1030,3 hPa 0,0 mm 3,2 km/h (1 Bft) SO 135 0 min 0 UV-I 72 W/m 8,0 km/h (2 Bft)
27.12.2007 12:00 2,7 C 83 % 1030,2 hPa 0,0 mm 3,2 km/h (1 Bft) O-SO 112 0 min 0 UV-I 81 W/m 8,0 km/h (2 Bft)
27.12.2007 12:10 2,7 C 82 % 1030,4 hPa 0,0 mm 1,6 km/h (1 Bft) SO 135 0 min 0 UV-I 83 W/m 8,0 km/h (2 Bft)
27.12.2007 12:20 2,8 C 81 % 1030,4 hPa 0,0 mm 0,0 km/h (0 Bft) S-SO 157 0 min 0 UV-I 132 W/m 3,2 km/h (1 Bft)
27.12.2007 12:30 3,3 C 80 % 1030,2 hPa 0,0 mm 1,6 km/h (1 Bft) S-SO 157 10 min 1 UV-I 309 W/m 3,2 km/h (1 Bft)
27.12.2007 12:40 4,0 C 78 % 1030,3 hPa 0,0 mm 1,6 km/h (1 Bft) S-SO 157 10 min 1 UV-I 309 W/m 6,4 km/h (2 Bft)
27.12.2007 12:50 4,3 C 77 % 1030,3 hPa 0,0 mm 1,6 km/h (1 Bft) SO 135 10 min 0 UV-I 174 W/m 6,4 km/h (2 Bft)
27.12.2007 13:00 4,3 C 78 % 1030,2 hPa 0,0 mm 1,6 km/h (1 Bft) S-SO 157 0 min 0 UV-I 109 W/m 4,8 km/h (1 Bft)
27.12.2007 13:10 4,3 C 77 % 1030,5 hPa 0,0 mm 1,6 km/h (1 Bft) S-SO 157 10 min 0 UV-I 151 W/m 3,2 km/h (1 Bft)
27.12.2007 13:20 4,6 C 76 % 1030,5 hPa 0,0 mm 1,6 km/h (1 Bft) S-SW 202 10 min 0 UV-I 142 W/m 4,8 km/h (1 Bft)
27.12.2007 13:30 4,6 C 76 % 1030,6 hPa 0,0 mm 1,6 km/h (1 Bft) W-SW 247 0 min 0 UV-I 90 W/m 3,2 km/h (1 Bft)
27.12.2007 13:40 4,6 C 77 % 1030,4 hPa 0,0 mm 1,6 km/h (1 Bft) W-SW 247 0 min 0 UV-I 90 W/m 8,0 km/h (2 Bft)
27.12.2007 13:50 4,6 C 76 % 1030,4 hPa 0,0 mm 1,6 km/h (1 Bft) W-SW 247 0 min 0 UV-I 95 W/m 4,8 km/h (1 Bft)
27.12.2007 14:00 4,5 C 77 % 1030,5 hPa 0,0 mm 1,6 km/h (1 Bft) W-SW 247 0 min 0 UV-I 97 W/m 4,8 km/h (1 Bft)
27.12.2007 14:10 4,4 C 78 % 1030,4 hPa 0,0 mm 0,0 km/h (0 Bft) W-SW 247 0 min 0 UV-I 90 W/m 3,2 km/h (1 Bft)
27.12.2007 14:20 4,4 C 78 % 1030,4 hPa 0,0 mm 0,0 km/h (0 Bft) N 0 0 min 0 UV-I 63 W/m 0,0 km/h (0 Bft)
27.12.2007 14:30 4,4 C 78 % 1030,3 hPa 0,0 mm 0,0 km/h (0 Bft) N 0 0 min 0 UV-I 72 W/m 0,0 km/h (0 Bft)
27.12.2007 14:40 4,4 C 79 % 1030,1 hPa 0,0 mm 0,0 km/h (0 Bft) W-SW 247 0 min 0 UV-I 67 W/m 3,2 km/h (1 Bft)
27.12.2007 14:50 4,3 C 79 % 1030,2 hPa 0,0 mm 0,0 km/h (0 Bft) W-SW 247 0 min 0 UV-I 69 W/m 1,6 km/h (1 Bft)
27.12.2007 15:00 4,3 C 79 % 1030,4 hPa 0,0 mm 0,0 km/h (0 Bft) W-SW 247 0 min 0 UV-I 60 W/m 1,6 km/h (1 Bft)
27.12.2007 15:10 4,2 C 80 % 1030,5 hPa 0,0 mm 0,0 km/h (0 Bft) W-SW 247 0 min 0 UV-I 47 W/m 1,6 km/h (1 Bft)
27.12.2007 15:20 4,2 C 80 % 1030,3 hPa 0,0 mm 1,6 km/h (1 Bft) W-SW 247 0 min 0 UV-I 33 W/m 3,2 km/h (1 Bft)
27.12.2007 15:30 4,1 C 80 % 1030,4 hPa 0,0 mm 0,0 km/h (0 Bft) W-SW 247 0 min 0 UV-I 21 W/m 1,6 km/h (1 Bft)
27.12.2007 15:40 4,1 C 80 % 1030,4 hPa 0,0 mm 0,0 km/h (0 Bft) W-SW 247 0 min 0 UV-I 16 W/m 1,6 km/h (1 Bft)
27.12.2007 15:50 3,9 C 80 % 1030,3 hPa 0,0 mm 1,6 km/h (1 Bft) W-SW 247 0 min 0 UV-I 11 W/m 3,2 km/h (1 Bft)
27.12.2007 16:00 3,8 C 81 % 1030,2 hPa 0,0 mm 1,6 km/h (1 Bft) SO 135 0 min 0 UV-I 7 W/m 4,8 km/h (1 Bft)
27.12.2007 16:10 3,7 C 81 % 1030,4 hPa 0,0 mm 1,6 km/h (1 Bft) SO 135 0 min 0 UV-I 0 W/m 6,4 km/h (2 Bft)
27.12.2007 16:20 3,6 C 81 % 1030,2 hPa 0,0 mm 3,2 km/h (1 Bft) O-SO 112 0 min 0 UV-I 0 W/m 6,4 km/h (2 Bft)
27.12.2007 16:30 3,6 C 81 % 1030,3 hPa 0,0 mm 1,6 km/h (1 Bft) O-SO 112 0 min 0 UV-I 0 W/m 4,8 km/h (1 Bft)
27.12.2007 16:40 3,5 C 81 % 1030,2 hPa 0,0 mm 1,6 km/h (1 Bft) O-SO 112 0 min 0 UV-I 0 W/m 4,8 km/h (1 Bft)
27.12.2007 16:50 3,4 C 81 % 1030,5 hPa 0,0 mm 1,6 km/h (1 Bft) O-SO 112 0 min 0 UV-I 0 W/m 6,4 km/h (2 Bft)
27.12.2007 17:00 3,4 C 81 % 1030,4 hPa 0,0 mm 1,6 km/h (1 Bft) SO 135 0 min 0 UV-I 0 W/m 4,8 km/h (1 Bft)
27.12.2007 17:10 3,3 C 81 % 1030,3 hPa 0,0 mm 3,2 km/h (1 Bft) SO 135 0 min 0 UV-I 0 W/m 8,0 km/h (2 Bft)
27.12.2007 17:20 3,3 C 81 % 1030,2 hPa 0,0 mm 1,6 km/h (1 Bft) SO 135 0 min 0 UV-I 0 W/m 6,4 km/h (2 Bft)
27.12.2007 17:30 3,2 C 81 % 1030,3 hPa 0,0 mm 3,2 km/h (1 Bft) O-SO 112 0 min 0 UV-I 0 W/m 8,0 km/h (2 Bft)
27.12.2007 17:40 3,2 C 82 % 1030,3 hPa 0,0 mm 1,6 km/h (1 Bft) SO 135 0 min 0 UV-I 0 W/m 6,4 km/h (2 Bft)
27.12.2007 17:50 3,2 C 82 % 1030,2 hPa 0,0 mm 1,6 km/h (1 Bft) SO 135 0 min 0 UV-I 0 W/m 8,0 km/h (2 Bft)
27.12.2007 18:00 3,1 C 82 % 1030,1 hPa 0,0 mm 3,2 km/h (1 Bft) S-SO 157 0 min 0 UV-I 0 W/m 8,0 km/h (2 Bft)
27.12.2007 18:10 3,1 C 82 % 1030,0 hPa 0,0 mm 1,6 km/h (1 Bft) SO 135 0 min 0 UV-I 0 W/m 9,7 km/h (2 Bft)
27.12.2007 18:20 3,1 C 82 % 1030,1 hPa 0,0 mm 1,6 km/h (1 Bft) S-SO 157 0 min 0 UV-I 0 W/m 4,8 km/h (1 Bft)
27.12.2007 18:30 3,1 C 83 % 1030,0 hPa 0,0 mm 1,6 km/h (1 Bft) S-SO 157 0 min 0 UV-I 0 W/m 4,8 km/h (1 Bft)
27.12.2007 18:40 3,1 C 83 % 1030,0 hPa 0,0 mm 1,6 km/h (1 Bft) O-SO 112 0 min 0 UV-I 0 W/m 8,0 km/h (2 Bft)
27.12.2007 18:50 3,2 C 83 % 1030,1 hPa 0,0 mm 1,6 km/h (1 Bft) O-SO 112 0 min 0 UV-I 0 W/m 4,8 km/h (1 Bft)
27.12.2007 19:00 3,2 C 83 % 1030,0 hPa 0,0 mm 3,2 km/h (1 Bft) SO 135 0 min 0 UV-I 0 W/m 6,4 km/h (2 Bft)
27.12.2007 19:10 3,2 C 83 % 1030,0 hPa 0,0 mm 1,6 km/h (1 Bft) O-SO 112 0 min 0 UV-I 0 W/m 6,4 km/h (2 Bft)
27.12.2007 19:20 3,3 C 83 % 1029,9 hPa 0,0 mm 1,6 km/h (1 Bft) O-SO 112 0 min 0 UV-I 0 W/m 4,8 km/h (1 Bft)
27.12.2007 19:30 3,3 C 83 % 1030,0 hPa 0,0 mm 1,6 km/h (1 Bft) O-SO 112 0 min 0 UV-I 0 W/m 6,4 km/h (2 Bft)
27.12.2007 19:40 3,3 C 84 % 1029,8 hPa 0,0 mm 1,6 km/h (1 Bft) SO 135 0 min 0 UV-I 0 W/m 6,4 km/h (2 Bft)
27.12.2007 19:50 3,4 C 84 % 1029,9 hPa 0,0 mm 1,6 km/h (1 Bft) SO 135 0 min 0 UV-I 0 W/m 9,7 km/h (2 Bft)
27.12.2007 20:00 3,5 C 84 % 1029,9 hPa 0,0 mm 3,2 km/h (1 Bft) SO 135 0 min 0 UV-I 0 W/m 9,7 km/h (2 Bft)
27.12.2007 20:10 3,6 C 84 % 1029,9 hPa 0,0 mm 1,6 km/h (1 Bft) SO 135 0 min 0 UV-I 0 W/m 4,8 km/h (1 Bft)
27.12.2007 20:20 3,7 C 84 % 1029,8 hPa 0,0 mm 1,6 km/h (1 Bft) S-SO 157 0 min 0 UV-I 0 W/m 4,8 km/h (1 Bft)
27.12.2007 20:30 3,7 C 84 % 1029,8 hPa 0,0 mm 1,6 km/h (1 Bft) S-SO 157 0 min 0 UV-I 0 W/m 6,4 km/h (2 Bft)
27.12.2007 20:40 3,7 C 84 % 1029,8 hPa 0,0 mm 1,6 km/h (1 Bft) SO 135 0 min 0 UV-I 0 W/m 4,8 km/h (1 Bft)
27.12.2007 20:50 3,7 C 84 % 1029,8 hPa 0,0 mm 1,6 km/h (1 Bft) S-SO 157 0 min 0 UV-I 0 W/m 6,4 km/h (2 Bft)
27.12.2007 21:00 3,8 C 84 % 1029,7 hPa 0,0 mm 1,6 km/h (1 Bft) S-SO 157 0 min 0 UV-I 0 W/m 4,8 km/h (1 Bft)
27.12.2007 21:10 3,8 C 84 % 1029,8 hPa 0,0 mm 1,6 km/h (1 Bft) S-SO 157 0 min 0 UV-I 0 W/m 4,8 km/h (1 Bft)
27.12.2007 21:20 3,8 C 84 % 1029,8 hPa 0,0 mm 1,6 km/h (1 Bft) S-SO 157 0 min 0 UV-I 0 W/m 6,4 km/h (2 Bft)
27.12.2007 21:30 3,9 C 85 % 1029,8 hPa 0,0 mm 1,6 km/h (1 Bft) S-SO 157 0 min 0 UV-I 0 W/m 4,8 km/h (1 Bft)
27.12.2007 21:40 3,9 C 85 % 1029,9 hPa 0,0 mm 1,6 km/h (1 Bft) S 180 0 min 0 UV-I 0 W/m 6,4 km/h (2 Bft)
27.12.2007 21:50 4,0 C 85 % 1029,9 hPa 0,0 mm 1,6 km/h (1 Bft) S-SO 157 0 min 0 UV-I 0 W/m 6,4 km/h (2 Bft)
27.12.2007 22:00 4,1 C 85 % 1029,9 hPa 0,0 mm 1,6 km/h (1 Bft) SO 135 0 min 0 UV-I 0 W/m 4,8 km/h (1 Bft)
27.12.2007 22:10 4,1 C 85 % 1029,7 hPa 0,0 mm 1,6 km/h (1 Bft) S-SO 157 0 min 0 UV-I 0 W/m 6,4 km/h (2 Bft)
27.12.2007 22:20 4,1 C 85 % 1029,8 hPa 0,0 mm 1,6 km/h (1 Bft) S-SO 157 0 min 0 UV-I 0 W/m 3,2 km/h (1 Bft)
27.12.2007 22:30 4,1 C 85 % 1029,7 hPa 0,0 mm 1,6 km/h (1 Bft) S-SO 157 0 min 0 UV-I 0 W/m 4,8 km/h (1 Bft)
27.12.2007 22:40 4,1 C 86 % 1029,6 hPa 0,0 mm 1,6 km/h (1 Bft) S-SO 157 0 min 0 UV-I 0 W/m 6,4 km/h (2 Bft)
27.12.2007 22:50 4,2 C 86 % 1029,5 hPa 0,0 mm 1,6 km/h (1 Bft) S-SO 157 0 min 0 UV-I 0 W/m 4,8 km/h (1 Bft)
27.12.2007 23:00 4,2 C 85 % 1029,5 hPa 0,0 mm 1,6 km/h (1 Bft) S-SO 157 0 min 0 UV-I 0 W/m 3,2 km/h (1 Bft)
27.12.2007 23:10 4,2 C 86 % 1029,5 hPa 0,0 mm 1,6 km/h (1 Bft) SO 135 0 min 0 UV-I 0 W/m 6,4 km/h (2 Bft)
27.12.2007 23:20 4,1 C 85 % 1029,4 hPa 0,0 mm 1,6 km/h (1 Bft) S-SO 157 0 min 0 UV-I 0 W/m 6,4 km/h (2 Bft)
27.12.2007 23:30 4,1 C 85 % 1029,4 hPa 0,0 mm 1,6 km/h (1 Bft) S-SO 157 0 min 0 UV-I 0 W/m 4,8 km/h (1 Bft)
27.12.2007 23:40 4,1 C 86 % 1029,4 hPa 0,0 mm 1,6 km/h (1 Bft) S-SO 157 0 min 0 UV-I 0 W/m 4,8 km/h (1 Bft)
27.12.2007 23:50 4,1 C 86 % 1029,5 hPa 0,0 mm 1,6 km/h (1 Bft) SO 135 0 min 0 UV-I 0 W/m 4,8 km/h (1 Bft)
_ Min-Zeit 09:40 13:20 23:20 - 00:30 - - - - - 14:20
Minimum _ 0,0 C 76 % 1029,4 hPa - 0,0 km/h (0 Bft) - - - - - 0,0 km/h (0 Bft)
_ Max-Zeit 13:20 00:00 08:10 00:00 10:00 - - 08:50 12:30 12:30 01:30
Maximum _ 4,7 C 91 % 1031,6 hPa 0,0 mm 4,8 km/h
O (1 Bft)
- - 10 min 1 UV-I 309 W/m 14,5 km/h
W-SW (3 Bft)
Durchschnitt _ 2,9 C 84 % 1030,6 hPa #0,0 mm 1,7 km/h (1 Bft) SO - #1:50 h 1 UV-I 84 W/m 5,9 km/h (2 Bft)